Time,TemperatureF,DewpointF,PressureIn,WindDirection,WindDirectionDegrees,WindSpeedMPH,WindSpeedGustMPH,Humidity,HourlyPrecipIn,Conditions,Clouds,dailyrainin,SoftwareType,DateUTC
2013-04-23 00:01:00,48.2,41.0,30.42,East,81,14.1,15.4,76,0.00,,---,0.00,VWS V14.01,2013-04-23 04:01:00,
2013-04-23 00:03:00,48.2,41.0,30.42,East,100,7.6,14.1,76,0.00,,---,0.00,VWS V14.01,2013-04-23 04:03:00,
2013-04-23 00:04:00,48.4,41.2,30.42,ESE,106,12.8,12.8,76,0.00,,---,0.00,VWS V14.01,2013-04-23 04:04:00,
2013-04-23 00:06:00,48.4,41.2,30.42,ENE,78,8.3,13.2,76,0.00,,---,0.00,VWS V14.01,2013-04-23 04:06:00,
2013-04-23 00:11:00,48.2,41.0,30.42,ENE,59,8.7,17.4,76,0.00,,---,0.00,VWS V14.01,2013-04-23 04:11:00,
2013-04-23 00:14:00,48.2,40.7,30.42,NE,41,17.4,17.9,75,0.00,,---,0.00,VWS V14.01,2013-04-23 04:14:00,
2013-04-23 00:19:00,48.2,40.7,30.42,East,90,15.4,17.4,75,0.00,,---,0.00,VWS V14.01,2013-04-23 04:19:00,
2013-04-23 00:25:00,48.2,40.7,30.42,ENE,71,8.7,13.2,75,0.00,,---,0.00,VWS V14.01,2013-04-23 04:25:00,
2013-04-23 00:30:00,48.0,40.8,30.42,ENE,76,11.0,17.4,76,0.00,,---,0.00,VWS V14.01,2013-04-23 04:30:00,
2013-04-23 00:36:00,48.0,40.5,30.42,East,83,12.8,16.3,75,0.00,,---,0.00,VWS V14.01,2013-04-23 04:36:00,
2013-04-23 00:41:00,48.0,40.5,30.42,ENE,75,16.8,17.0,75,0.00,,---,0.00,VWS V14.01,2013-04-23 04:41:00,
2013-04-23 00:46:00,48.0,40.5,30.42,ENE,71,15.4,17.4,75,0.00,,---,0.00,VWS V14.01,2013-04-23 04:46:00,
2013-04-23 00:51:00,48.0,40.5,30.42,ENE,76,13.2,18.8,75,0.00,,---,0.00,VWS V14.01,2013-04-23 04:51:00,
2013-04-23 00:56:00,48.0,40.5,30.42,East,91,14.5,15.4,75,0.00,,---,0.00,VWS V14.01,2013-04-23 04:56:00,
2013-04-23 01:01:00,48.0,40.5,30.42,ENE,65,19.7,19.7,75,0.00,,---,0.00,VWS V14.01,2013-04-23 05:01:00,
2013-04-23 01:06:00,47.8,40.3,30.42,East,100,7.6,15.4,75,0.00,,---,0.00,VWS V14.01,2013-04-23 05:06:00,
2013-04-23 01:11:00,48.0,40.5,30.42,ENE,58,15.4,15.4,75,0.00,,---,0.00,VWS V14.01,2013-04-23 05:11:00,
2013-04-23 01:16:00,47.8,40.3,30.39,East,100,11.0,15.0,75,0.00,,---,0.00,VWS V14.01,2013-04-23 05:16:00,
2013-04-23 01:21:00,47.8,40.3,30.39,East,88,12.8,12.8,75,0.00,,---,0.00,VWS V14.01,2013-04-23 05:21:00,
2013-04-23 01:26:00,47.8,40.3,30.39,ENE,70,12.8,17.0,75,0.00,,---,0.00,VWS V14.01,2013-04-23 05:26:00,
2013-04-23 01:31:00,47.7,40.1,30.39,East,96,13.2,13.2,75,0.00,,---,0.00,VWS V14.01,2013-04-23 05:31:00,
2013-04-23 01:36:00,47.8,40.3,30.39,East,91,15.4,17.4,75,0.00,,---,0.00,VWS V14.01,2013-04-23 05:36:00,
2013-04-23 01:41:00,47.7,40.1,30.39,East,91,10.5,15.4,75,0.00,,---,0.00,VWS V14.01,2013-04-23 05:41:00,
2013-04-23 01:46:00,47.7,40.1,30.39,East,92,14.1,15.4,75,0.00,,---,0.00,VWS V14.01,2013-04-23 05:46:00,
2013-04-23 01:51:00,47.7,40.1,30.39,ENE,62,15.4,15.4,75,0.00,,---,0.00,VWS V14.01,2013-04-23 05:51:00,
2013-04-23 01:56:00,47.7,40.1,30.39,East,82,11.9,13.2,75,0.00,,---,0.00,VWS V14.01,2013-04-23 05:56:00,
2013-04-23 02:01:00,47.7,40.1,30.39,ENE,59,13.6,15.9,75,0.00,,---,0.00,VWS V14.01,2013-04-23 06:01:00,
2013-04-23 02:06:00,47.5,40.0,30.39,NE,44,10.5,16.3,75,0.00,,---,0.00,VWS V14.01,2013-04-23 06:06:00,
2013-04-23 02:11:00,47.7,40.1,30.39,East,84,9.2,12.8,75,0.00,,---,0.00,VWS V14.01,2013-04-23 06:11:00,
2013-04-23 02:16:00,47.7,40.1,30.39,NE,56,17.0,17.0,75,0.00,,---,0.00,VWS V14.01,2013-04-23 06:16:00,
2013-04-23 02:21:00,47.5,40.0,30.39,ENE,66,8.7,10.1,75,0.00,,---,0.00,VWS V14.01,2013-04-23 06:21:00,
2013-04-23 02:26:00,47.5,39.6,30.36,East,87,8.1,8.7,74,0.00,,---,0.00,VWS V14.01,2013-04-23 06:26:00,
2013-04-23 02:31:00,47.5,39.6,30.36,ENE,73,5.8,10.5,74,0.00,,---,0.00,VWS V14.01,2013-04-23 06:31:00,
2013-04-23 02:36:00,47.5,40.0,30.36,NE,56,15.0,15.9,75,0.00,,---,0.00,VWS V14.01,2013-04-23 06:36:00,
2013-04-23 02:41:00,47.5,40.0,30.36,ESE,113,8.3,15.4,75,0.00,,---,0.00,VWS V14.01,2013-04-23 06:41:00,
2013-04-23 02:46:00,47.3,39.8,30.36,ENE,58,15.4,15.4,75,0.00,,---,0.00,VWS V14.01,2013-04-23 06:46:00,
2013-04-23 02:51:00,47.3,39.8,30.36,NE,44,9.2,15.0,75,0.00,,---,0.00,VWS V14.01,2013-04-23 06:51:00,
2013-04-23 02:56:00,47.3,39.8,30.36,ENE,67,15.4,15.4,75,0.00,,---,0.00,VWS V14.01,2013-04-23 06:56:00,
2013-04-23 03:01:00,47.3,39.5,30.36,NE,47,14.1,16.3,74,0.00,,---,0.00,VWS V14.01,2013-04-23 07:01:00,
2013-04-23 03:06:00,47.1,39.3,30.36,ENE,66,15.4,15.4,74,0.00,,---,0.00,VWS V14.01,2013-04-23 07:06:00,
2013-04-23 03:11:00,47.1,39.3,30.36,East,81,13.6,19.7,74,0.00,,---,0.00,VWS V14.01,2013-04-23 07:11:00,
2013-04-23 03:16:00,47.1,39.6,30.36,ENE,64,16.3,16.3,75,0.00,,---,0.00,VWS V14.01,2013-04-23 07:16:00,
2013-04-23 03:21:00,47.1,39.6,30.36,East,81,13.2,17.4,75,0.00,,---,0.00,VWS V14.01,2013-04-23 07:21:00,
2013-04-23 03:26:00,47.1,39.6,30.36,NE,55,8.3,16.3,75,0.00,,---,0.00,VWS V14.01,2013-04-23 07:26:00,
2013-04-23 03:31:00,47.1,39.6,30.36,NE,44,13.2,18.8,75,0.00,,---,0.00,VWS V14.01,2013-04-23 07:31:00,
2013-04-23 03:36:00,46.9,39.4,30.36,ENE,66,12.8,12.8,75,0.00,,---,0.00,VWS V14.01,2013-04-23 07:36:00,
2013-04-23 03:41:00,46.9,39.4,30.36,East,85,13.2,13.2,75,0.00,,---,0.00,VWS V14.01,2013-04-23 07:41:00,
2013-04-23 03:46:00,46.9,39.4,30.36,NE,55,11.4,11.4,75,0.00,,---,0.00,VWS V14.01,2013-04-23 07:46:00,
2013-04-23 03:51:00,46.9,39.4,30.36,ENE,66,8.1,14.5,75,0.00,,---,0.00,VWS V14.01,2013-04-23 07:51:00,
2013-04-23 03:56:00,46.9,39.4,30.36,NE,46,12.8,15.4,75,0.00,,---,0.00,VWS V14.01,2013-04-23 07:56:00,
2013-04-23 04:01:00,46.9,39.4,30.36,NNE,15,8.7,17.4,75,0.00,,---,0.00,VWS V14.01,2013-04-23 08:01:00,
2013-04-23 04:06:00,46.9,39.4,30.36,NE,36,13.2,13.2,75,0.00,,---,0.00,VWS V14.01,2013-04-23 08:06:00,
2013-04-23 04:11:00,46.9,39.4,30.36,ENE,64,16.8,17.0,75,0.00,,---,0.00,VWS V14.01,2013-04-23 08:11:00,
2013-04-23 04:16:00,46.9,39.4,30.36,NNE,33,4.0,8.7,75,0.00,,---,0.00,VWS V14.01,2013-04-23 08:16:00,
2013-04-23 04:21:00,46.9,39.4,30.36,ENE,73,14.5,19.7,75,0.00,,---,0.00,VWS V14.01,2013-04-23 08:21:00,
2013-04-23 04:26:00,46.9,39.8,30.33,East,80,8.3,12.3,76,0.00,,---,0.00,VWS V14.01,2013-04-23 08:26:00,
2013-04-23 04:31:00,46.8,39.6,30.33,NE,43,9.6,15.4,76,0.00,,---,0.00,VWS V14.01,2013-04-23 08:31:00,
2013-04-23 04:37:00,46.8,39.6,30.33,ENE,66,10.5,13.2,76,0.00,,---,0.00,VWS V14.01,2013-04-23 08:37:00,
2013-04-23 04:42:00,46.8,39.6,30.33,ENE,76,17.4,17.4,76,0.00,,---,0.00,VWS V14.01,2013-04-23 08:42:00,
2013-04-23 04:47:00,46.8,39.6,30.33,ENE,78,13.2,16.8,76,0.00,,---,0.00,VWS V14.01,2013-04-23 08:47:00,
2013-04-23 04:52:00,46.8,39.6,30.33,ENE,74,6.3,14.1,76,0.00,,---,0.00,VWS V14.01,2013-04-23 08:52:00,
2013-04-23 04:57:00,46.8,39.6,30.33,ENE,77,13.2,13.6,76,0.00,,---,0.00,VWS V14.01,2013-04-23 08:57:00,
2013-04-23 05:02:00,46.8,39.6,30.33,ENE,71,10.1,16.3,76,0.00,,---,0.00,VWS V14.01,2013-04-23 09:02:00,
2013-04-23 05:07:00,46.6,39.8,30.33,NE,36,11.4,18.3,77,0.00,,---,0.00,VWS V14.01,2013-04-23 09:07:00,
2013-04-23 05:12:00,46.8,39.9,30.33,ENE,76,12.3,14.5,77,0.00,,---,0.00,VWS V14.01,2013-04-23 09:12:00,
2013-04-23 05:17:00,46.8,39.9,30.33,ENE,67,8.1,15.4,77,0.00,,---,0.00,VWS V14.01,2013-04-23 09:17:00,
2013-04-23 05:22:00,46.8,40.3,30.33,ENE,69,5.8,15.0,78,0.00,,---,0.00,VWS V14.01,2013-04-23 09:22:00,
2013-04-23 05:27:00,46.6,40.1,30.33,East,81,12.8,14.5,78,0.00,,---,0.00,VWS V14.01,2013-04-23 09:27:00,
2013-04-23 05:32:00,46.6,40.4,30.30,ENE,68,11.9,15.4,79,0.00,,---,0.00,VWS V14.01,2013-04-23 09:32:00,
2013-04-23 05:37:00,46.6,40.4,30.30,NE,50,12.3,15.4,79,0.00,,---,0.00,VWS V14.01,2013-04-23 09:37:00,
2013-04-23 05:42:00,46.6,40.4,30.30,East,90,13.6,13.6,79,0.00,,---,0.00,VWS V14.01,2013-04-23 09:42:00,
2013-04-23 05:47:00,46.6,40.4,30.30,East,84,10.1,13.2,79,0.00,,---,0.00,VWS V14.01,2013-04-23 09:47:00,
2013-04-23 05:52:00,46.6,40.4,30.30,ENE,64,8.1,11.0,79,0.00,,---,0.00,VWS V14.01,2013-04-23 09:52:00,
2013-04-23 05:57:00,46.6,40.8,30.30,ENE,57,12.8,12.8,80,0.00,,---,0.00,VWS V14.01,2013-04-23 09:57:00,
2013-04-23 06:02:00,46.6,40.8,30.30,East,84,8.1,12.8,80,0.00,,---,0.00,VWS V14.01,2013-04-23 10:02:00,
2013-04-23 06:07:00,46.6,40.8,30.30,NE,56,12.8,17.0,80,0.00,,---,0.00,VWS V14.01,2013-04-23 10:07:00,
2013-04-23 06:12:00,46.4,40.6,30.30,East,91,14.1,17.4,80,0.00,,---,0.00,VWS V14.01,2013-04-23 10:12:00,
2013-04-23 06:17:00,46.4,40.9,30.30,East,92,15.4,15.4,81,0.00,,---,0.00,VWS V14.01,2013-04-23 10:17:00,
2013-04-23 06:22:00,46.4,40.9,30.30,East,83,13.2,15.4,81,0.00,,---,0.00,VWS V14.01,2013-04-23 10:22:00,
2013-04-23 06:27:00,46.4,40.9,30.33,NE,54,10.1,15.0,81,0.00,,---,0.00,VWS V14.01,2013-04-23 10:27:00,
2013-04-23 06:32:00,46.4,40.9,30.33,ENE,66,11.9,13.2,81,0.00,,---,0.00,VWS V14.01,2013-04-23 10:32:00,
2013-04-23 06:37:00,46.4,40.9,30.33,East,83,12.3,12.8,81,0.00,,---,0.00,VWS V14.01,2013-04-23 10:37:00,
2013-04-23 06:42:00,46.4,40.9,30.30,East,80,11.4,11.4,81,0.00,,---,0.00,VWS V14.01,2013-04-23 10:42:00,
2013-04-23 06:47:00,46.4,40.9,30.30,East,87,8.1,8.1,81,0.00,,---,0.00,VWS V14.01,2013-04-23 10:47:00,
2013-04-23 06:52:00,46.4,40.9,30.30,ENE,67,8.1,18.8,81,0.00,,---,0.00,VWS V14.01,2013-04-23 10:52:00,
2013-04-23 06:57:00,46.4,40.9,30.30,East,82,11.9,11.9,81,0.00,,---,0.00,VWS V14.01,2013-04-23 10:57:00,
2013-04-23 07:02:00,46.4,41.2,30.30,ENE,63,7.6,12.3,82,0.00,,---,0.00,VWS V14.01,2013-04-23 11:02:00,
2013-04-23 07:07:00,46.4,41.2,30.30,East,88,8.3,8.3,82,0.00,,---,0.00,VWS V14.01,2013-04-23 11:07:00,
2013-04-23 07:12:00,46.4,41.2,30.33,ENE,65,11.0,11.0,82,0.00,,---,0.00,VWS V14.01,2013-04-23 11:12:00,
2013-04-23 07:17:00,46.4,41.2,30.33,NE,50,19.2,19.2,82,0.00,,---,0.00,VWS V14.01,2013-04-23 11:17:00,
2013-04-23 07:22:00,46.4,41.2,30.33,ENE,73,12.3,12.3,82,0.00,,---,0.00,VWS V14.01,2013-04-23 11:22:00,
2013-04-23 07:27:00,46.4,41.2,30.30,NNE,28,12.8,13.2,82,0.00,,---,0.00,VWS V14.01,2013-04-23 11:27:00,
2013-04-23 07:32:00,46.4,41.2,30.30,NE,37,13.2,16.3,82,0.00,,---,0.00,VWS V14.01,2013-04-23 11:32:00,
2013-04-23 07:37:00,46.4,41.2,30.30,NE,51,8.7,10.1,82,0.00,,---,0.00,VWS V14.01,2013-04-23 11:37:00,
2013-04-23 07:42:00,46.6,41.4,30.30,NE,42,11.0,12.3,82,0.00,,---,0.00,VWS V14.01,2013-04-23 11:42:00,
2013-04-23 07:47:00,46.6,41.4,30.30,NE,44,11.4,11.4,82,0.00,,---,0.00,VWS V14.01,2013-04-23 11:47:00,
2013-04-23 07:52:00,46.6,41.4,30.30,NE,54,15.4,20.6,82,0.00,,---,0.00,VWS V14.01,2013-04-23 11:52:00,
2013-04-23 07:57:00,46.6,41.4,30.30,East,94,11.4,13.2,82,0.00,,---,0.00,VWS V14.01,2013-04-23 11:57:00,
2013-04-23 08:02:00,46.6,41.4,30.30,ENE,58,12.8,12.8,82,0.00,,---,0.00,VWS V14.01,2013-04-23 12:02:00,
2013-04-23 08:07:00,46.8,41.6,30.30,NE,50,16.3,16.3,82,0.00,,---,0.00,VWS V14.01,2013-04-23 12:07:00,
2013-04-23 08:12:00,46.8,41.6,30.33,NNE,29,12.8,12.8,82,0.00,,---,0.00,VWS V14.01,2013-04-23 12:12:00,
2013-04-23 08:17:00,46.9,41.7,30.33,ENE,72,8.7,8.7,82,0.00,,---,0.00,VWS V14.01,2013-04-23 12:17:00,
2013-04-23 08:22:00,47.1,41.9,30.33,ENE,75,10.5,15.0,82,0.00,,---,0.00,VWS V14.01,2013-04-23 12:22:00,
2013-04-23 08:27:00,46.9,41.7,30.30,NE,37,13.2,14.1,82,0.00,,---,0.00,VWS V14.01,2013-04-23 12:27:00,
2013-04-23 08:32:00,47.1,41.9,30.30,NNE,26,8.7,12.3,82,0.00,,---,0.00,VWS V14.01,2013-04-23 12:32:00,
2013-04-23 08:37:00,47.1,41.9,30.30,NE,51,15.0,15.0,82,0.00,,---,0.00,VWS V14.01,2013-04-23 12:37:00,
2013-04-23 08:42:00,47.3,41.8,30.30,ENE,75,10.5,15.4,81,0.00,,---,0.00,VWS V14.01,2013-04-23 12:42:00,
2013-04-23 08:47:00,47.3,41.8,30.30,East,79,13.2,13.2,81,0.00,,---,0.00,VWS V14.01,2013-04-23 12:47:00,
2013-04-23 08:52:00,47.3,41.8,30.30,NNE,30,13.2,15.4,81,0.00,,---,0.00,VWS V14.01,2013-04-23 12:52:00,
2013-04-23 08:57:00,47.3,41.5,30.30,East,95,11.4,17.4,80,0.00,,---,0.00,VWS V14.01,2013-04-23 12:57:00,
2013-04-23 09:02:00,47.3,41.5,30.30,ENE,64,8.7,12.8,80,0.00,,---,0.00,VWS V14.01,2013-04-23 13:02:00,
2013-04-23 09:07:00,47.5,41.6,30.30,East,88,10.1,13.6,80,0.00,,---,0.00,VWS V14.01,2013-04-23 13:07:00,
2013-04-23 09:12:00,47.7,41.8,30.30,ENE,62,10.5,15.0,80,0.00,,---,0.00,VWS V14.01,2013-04-23 13:12:00,
2013-04-23 09:17:00,47.5,41.6,30.30,ENE,60,10.1,14.1,80,0.00,,---,0.00,VWS V14.01,2013-04-23 13:17:00,
2013-04-23 09:22:00,47.8,41.7,30.30,East,81,15.9,17.4,79,0.00,,---,0.00,VWS V14.01,2013-04-23 13:22:00,
2013-04-23 09:27:00,47.8,41.7,30.30,NNE,16,11.0,11.0,79,0.00,,---,0.00,VWS V14.01,2013-04-23 13:27:00,
2013-04-23 09:32:00,48.0,41.8,30.30,ENE,59,15.0,17.4,79,0.00,,---,0.00,VWS V14.01,2013-04-23 13:32:00,
2013-04-23 09:37:00,48.0,41.5,30.30,ENE,65,12.3,12.8,78,0.00,,---,0.00,VWS V14.01,2013-04-23 13:37:00,
2013-04-23 09:42:00,48.0,41.5,30.30,ENE,69,8.3,11.4,78,0.00,,---,0.00,VWS V14.01,2013-04-23 13:42:00,
2013-04-23 09:47:00,48.0,41.2,30.30,NE,48,15.0,15.0,77,0.00,,---,0.00,VWS V14.01,2013-04-23 13:47:00,
2013-04-23 09:52:00,48.0,41.2,30.30,NE,54,8.7,15.4,77,0.00,,---,0.00,VWS V14.01,2013-04-23 13:52:00,
2013-04-23 09:57:00,48.4,41.5,30.30,ENE,76,16.3,16.3,77,0.00,,---,0.00,VWS V14.01,2013-04-23 13:57:00,
2013-04-23 10:02:00,48.6,41.7,30.30,NNE,29,15.0,15.0,77,0.00,,---,0.00,VWS V14.01,2013-04-23 14:02:00,
2013-04-23 10:07:00,48.6,41.3,30.30,NE,47,13.6,15.4,76,0.00,,---,0.00,VWS V14.01,2013-04-23 14:07:00,
2013-04-23 10:12:00,48.7,41.5,30.30,East,96,15.0,17.0,76,0.00,,---,0.00,VWS V14.01,2013-04-23 14:12:00,
2013-04-23 10:17:00,48.7,41.5,30.30,NNE,25,17.0,17.0,76,0.00,,---,0.00,VWS V14.01,2013-04-23 14:17:00,
2013-04-23 10:22:00,48.9,41.7,30.30,NNE,17,8.7,13.6,76,0.00,,---,0.00,VWS V14.01,2013-04-23 14:22:00,
2013-04-23 10:27:00,49.1,41.9,30.30,ENE,61,10.1,13.6,76,0.00,,---,0.00,VWS V14.01,2013-04-23 14:27:00,
2013-04-23 10:32:00,49.5,42.2,30.30,ENE,62,13.2,13.2,76,0.00,,---,0.00,VWS V14.01,2013-04-23 14:32:00,
2013-04-23 10:37:00,49.6,42.4,30.30,NE,47,12.8,20.1,76,0.00,,---,0.00,VWS V14.01,2013-04-23 14:37:00,
2013-04-23 10:42:00,49.6,42.0,30.30,NNE,29,18.3,18.3,75,0.00,,---,0.00,VWS V14.01,2013-04-23 14:42:00,
2013-04-23 10:47:00,49.6,41.7,30.30,NE,48,10.5,17.9,74,0.00,,---,0.00,VWS V14.01,2013-04-23 14:47:00,
2013-04-23 10:52:00,49.6,41.7,30.30,ENE,58,13.6,13.6,74,0.00,,---,0.00,VWS V14.01,2013-04-23 14:52:00,
2013-04-23 10:57:00,49.6,41.3,30.30,NE,34,11.0,14.5,73,0.00,,---,0.00,VWS V14.01,2013-04-23 14:57:00,
2013-04-23 11:02:00,49.6,41.3,30.30,NE,41,13.2,15.9,73,0.00,,---,0.00,VWS V14.01,2013-04-23 15:02:00,
2013-04-23 11:07:00,49.8,41.5,30.30,ENE,73,8.7,18.8,73,0.00,,---,0.00,VWS V14.01,2013-04-23 15:07:00,
2013-04-23 11:12:00,49.8,41.5,30.27,ENE,58,15.4,18.8,73,0.00,,---,0.00,VWS V14.01,2013-04-23 15:12:00,
2013-04-23 11:17:00,50.0,41.3,30.27,East,92,11.0,17.4,72,0.00,,---,0.00,VWS V14.01,2013-04-23 15:17:00,
2013-04-23 11:22:00,50.2,41.2,30.27,NE,43,15.0,15.0,71,0.00,,---,0.00,VWS V14.01,2013-04-23 15:22:00,
2013-04-23 11:27:00,50.5,41.5,30.27,East,98,5.8,11.0,71,0.00,,---,0.00,VWS V14.01,2013-04-23 15:27:00,
2013-04-23 11:32:00,50.4,41.0,30.27,NNE,31,15.0,15.0,70,0.00,,---,0.00,VWS V14.01,2013-04-23 15:32:00,
2013-04-23 11:37:00,50.5,41.1,30.27,NNE,26,11.0,15.0,70,0.00,,---,0.00,VWS V14.01,2013-04-23 15:37:00,
2013-04-23 11:42:00,50.7,41.3,30.27,NNE,17,8.7,18.3,70,0.00,,---,0.00,VWS V14.01,2013-04-23 15:42:00,
2013-04-23 11:47:00,51.1,41.7,30.27,NE,43,9.6,10.5,70,0.00,,---,0.00,VWS V14.01,2013-04-23 15:47:00,
2013-04-23 11:52:00,50.9,41.1,30.27,NE,51,15.9,15.9,69,0.00,,---,0.00,VWS V14.01,2013-04-23 15:52:00,
2013-04-23 11:57:00,50.7,40.9,30.27,ENE,68,10.1,17.4,69,0.00,,---,0.00,VWS V14.01,2013-04-23 15:57:00,
2013-04-23 12:02:00,50.7,40.9,30.27,East,79,11.0,12.8,69,0.00,,---,0.00,VWS V14.01,2013-04-23 16:02:00,
2013-04-23 12:07:00,51.1,41.7,30.27,NE,55,15.9,15.9,70,0.00,,---,0.00,VWS V14.01,2013-04-23 16:07:00,
2013-04-23 12:12:00,51.3,41.5,30.24,East,81,7.6,16.8,69,0.00,,---,0.00,VWS V14.01,2013-04-23 16:12:00,
2013-04-23 12:17:00,51.3,41.5,30.24,NE,39,17.4,17.4,69,0.00,,---,0.00,VWS V14.01,2013-04-23 16:17:00,
2013-04-23 12:22:00,51.8,41.6,30.24,East,83,11.9,12.3,68,0.00,,---,0.00,VWS V14.01,2013-04-23 16:22:00,
2013-04-23 12:27:00,51.8,41.6,30.24,ENE,78,12.3,13.2,68,0.00,,---,0.00,VWS V14.01,2013-04-23 16:27:00,
2013-04-23 12:32:00,51.8,41.6,30.24,North,8,11.0,12.3,68,0.00,,---,0.00,VWS V14.01,2013-04-23 16:32:00,
2013-04-23 12:37:00,52.0,41.4,30.24,East,91,6.3,13.6,67,0.00,,---,0.00,VWS V14.01,2013-04-23 16:37:00,
2013-04-23 12:42:00,52.2,41.5,30.24,ENE,74,12.8,15.0,67,0.00,,---,0.00,VWS V14.01,2013-04-23 16:42:00,
2013-04-23 12:47:00,52.7,42.1,30.24,NE,35,6.3,11.0,67,0.00,,---,0.00,VWS V14.01,2013-04-23 16:47:00,
2013-04-23 12:52:00,53.1,42.4,30.24,ENE,67,8.1,12.8,67,0.00,,---,0.00,VWS V14.01,2013-04-23 16:52:00,
2013-04-23 12:57:00,53.2,42.2,30.24,North,8,4.9,11.0,66,0.00,,---,0.00,VWS V14.01,2013-04-23 16:57:00,
2013-04-23 13:03:00,53.4,42.4,30.24,ENE,73,17.4,17.4,66,0.00,,---,0.00,VWS V14.01,2013-04-23 17:03:00,
2013-04-23 13:08:00,53.4,42.4,30.24,ENE,65,8.7,17.4,66,0.00,,---,0.00,VWS V14.01,2013-04-23 17:08:00,
2013-04-23 13:13:00,53.2,41.8,30.24,ENE,61,13.2,13.2,65,0.00,,---,0.00,VWS V14.01,2013-04-23 17:13:00,
2013-04-23 13:18:00,53.1,42.0,30.24,East,90,7.2,10.5,66,0.00,,---,0.00,VWS V14.01,2013-04-23 17:18:00,
2013-04-23 13:23:00,52.7,41.7,30.24,NNE,32,10.5,13.6,66,0.00,,---,0.00,VWS V14.01,2013-04-23 17:23:00,
2013-04-23 13:28:00,52.7,42.1,30.24,NE,53,9.2,12.8,67,0.00,,---,0.00,VWS V14.01,2013-04-23 17:28:00,
2013-04-23 13:33:00,52.9,42.2,30.24,ENE,64,9.6,10.1,67,0.00,,---,0.00,VWS V14.01,2013-04-23 17:33:00,
2013-04-23 13:38:00,52.7,42.1,30.24,NE,54,8.3,11.0,67,0.00,,---,0.00,VWS V14.01,2013-04-23 17:38:00,
2013-04-23 13:43:00,52.3,41.7,30.21,NNE,33,12.8,17.4,67,0.00,,---,0.00,VWS V14.01,2013-04-23 17:43:00,
2013-04-23 13:48:00,52.2,41.5,30.21,NNE,29,8.7,18.8,67,0.00,,---,0.00,VWS V14.01,2013-04-23 17:48:00,
2013-04-23 13:53:00,52.0,41.8,30.21,NE,34,11.0,11.9,68,0.00,,---,0.00,VWS V14.01,2013-04-23 17:53:00,
2013-04-23 13:58:00,52.0,41.8,30.21,NE,45,12.8,12.8,68,0.00,,---,0.00,VWS V14.01,2013-04-23 17:58:00,
2013-04-23 14:03:00,51.8,42.0,30.21,ENE,69,7.6,11.0,69,0.00,,---,0.00,VWS V14.01,2013-04-23 18:03:00,
2013-04-23 14:08:00,51.8,42.0,30.21,NE,38,15.4,15.4,69,0.00,,---,0.00,VWS V14.01,2013-04-23 18:08:00,
2013-04-23 14:13:00,51.8,42.3,30.21,NE,46,11.0,11.0,70,0.00,,---,0.00,VWS V14.01,2013-04-23 18:13:00,
2013-04-23 14:18:00,51.6,42.2,30.21,NE,41,8.3,13.6,70,0.00,,---,0.00,VWS V14.01,2013-04-23 18:18:00,
2013-04-23 14:23:00,51.6,42.5,30.21,NE,53,8.3,11.0,71,0.00,,---,0.00,VWS V14.01,2013-04-23 18:23:00,
2013-04-23 14:28:00,51.4,42.7,30.21,North,9,8.1,10.5,72,0.00,,---,0.00,VWS V14.01,2013-04-23 18:28:00,
2013-04-23 14:33:00,50.9,42.6,30.21,NE,38,8.7,12.8,73,0.00,,---,0.00,VWS V14.01,2013-04-23 18:33:00,
2013-04-23 14:38:00,50.7,42.8,30.21,ENE,62,10.5,10.5,74,0.00,,---,0.00,VWS V14.01,2013-04-23 18:38:00,
2013-04-23 14:43:00,50.7,42.8,30.21,NE,52,8.1,8.1,74,0.00,,---,0.00,VWS V14.01,2013-04-23 18:43:00,
2013-04-23 14:48:00,50.9,42.6,30.21,NNE,25,5.8,5.8,73,0.00,,---,0.00,VWS V14.01,2013-04-23 18:48:00,
2013-04-23 14:53:00,51.1,42.7,30.21,NNE,30,6.3,8.7,73,0.00,,---,0.00,VWS V14.01,2013-04-23 18:53:00,
2013-04-23 14:58:00,50.9,42.6,30.21,North,357,8.7,11.0,73,0.00,,---,0.00,VWS V14.01,2013-04-23 18:58:00,
2013-04-23 15:03:00,50.9,42.6,30.21,NNE,23,8.3,8.3,73,0.00,,---,0.00,VWS V14.01,2013-04-23 19:03:00,
2013-04-23 15:08:00,50.9,42.2,30.21,NE,35,5.8,10.5,72,0.00,,---,0.00,VWS V14.01,2013-04-23 19:08:00,
2013-04-23 15:13:00,50.7,42.0,30.21,ENE,58,5.4,10.1,72,0.00,,---,0.00,VWS V14.01,2013-04-23 19:13:00,
2013-04-23 15:18:00,50.7,42.0,30.21,NE,44,4.0,5.4,72,0.00,,---,0.00,VWS V14.01,2013-04-23 19:18:00,
2013-04-23 15:23:00,50.7,42.0,30.21,NNE,20,10.1,12.3,72,0.00,,---,0.00,VWS V14.01,2013-04-23 19:23:00,
2013-04-23 15:28:00,50.9,42.2,30.21,North,3,2.7,8.3,72,0.00,,---,0.00,VWS V14.01,2013-04-23 19:28:00,
2013-04-23 15:33:00,50.9,42.2,30.21,North,353,4.0,8.1,72,0.00,,---,0.00,VWS V14.01,2013-04-23 19:33:00,
2013-04-23 15:38:00,50.9,42.2,30.21,NE,45,6.3,6.3,72,0.00,,---,0.00,VWS V14.01,2013-04-23 19:38:00,
2013-04-23 15:43:00,50.9,42.2,30.21,NNE,30,5.4,6.3,72,0.00,,---,0.00,VWS V14.01,2013-04-23 19:43:00,
2013-04-23 15:48:00,50.7,42.0,30.21,ENE,59,8.1,8.1,72,0.00,,---,0.00,VWS V14.01,2013-04-23 19:48:00,
2013-04-23 15:53:00,50.7,42.0,30.21,ENE,67,6.3,6.3,72,0.00,,---,0.00,VWS V14.01,2013-04-23 19:53:00,
2013-04-23 15:58:00,50.5,41.9,30.21,North,0,8.1,8.7,72,0.00,,---,0.00,VWS V14.01,2013-04-23 19:58:00,
2013-04-23 16:03:00,50.2,41.9,30.21,NNW,342,8.3,8.3,73,0.00,,---,0.00,VWS V14.01,2013-04-23 20:03:00,
2013-04-23 16:08:00,50.0,41.7,30.21,NNW,338,6.3,8.3,73,0.00,,---,0.00,VWS V14.01,2013-04-23 20:08:00,
2013-04-23 16:13:00,50.0,41.7,30.21,North,357,3.1,9.6,73,0.00,,---,0.00,VWS V14.01,2013-04-23 20:13:00,
2013-04-23 16:18:00,50.0,42.0,30.21,North,353,9.6,9.6,74,0.00,,---,0.00,VWS V14.01,2013-04-23 20:18:00,
2013-04-23 16:23:00,49.8,42.2,30.21,North,353,6.3,6.3,75,0.00,,---,0.00,VWS V14.01,2013-04-23 20:23:00,
2013-04-23 16:28:00,49.8,42.2,30.21,North,4,8.1,8.1,75,0.00,,---,0.00,VWS V14.01,2013-04-23 20:28:00,
2013-04-23 16:33:00,49.8,42.2,30.21,North,9,4.9,5.8,75,0.00,,---,0.00,VWS V14.01,2013-04-23 20:33:00,
2013-04-23 16:38:00,49.6,42.4,30.21,North,0,8.7,8.7,76,0.00,,---,0.00,VWS V14.01,2013-04-23 20:38:00,
2013-04-23 16:43:00,49.6,42.4,30.21,North,350,6.3,6.3,76,0.00,,---,0.00,VWS V14.01,2013-04-23 20:43:00,
2013-04-23 16:48:00,49.6,42.7,30.21,NE,48,6.3,7.6,77,0.00,,---,0.00,VWS V14.01,2013-04-23 20:48:00,
2013-04-23 16:53:00,50.0,42.7,30.21,NNE,14,7.2,7.2,76,0.00,,---,0.00,VWS V14.01,2013-04-23 20:53:00,
2013-04-23 16:58:00,50.2,42.9,30.21,NNE,25,4.9,5.8,76,0.00,,---,0.00,VWS V14.01,2013-04-23 20:58:00,
2013-04-23 17:03:00,50.2,42.6,30.21,WNW,284,7.6,11.0,75,0.00,,---,0.00,VWS V14.01,2013-04-23 21:03:00,
2013-04-23 17:08:00,50.2,42.6,30.21,NNE,23,5.4,5.8,75,0.00,,---,0.00,VWS V14.01,2013-04-23 21:08:00,
2013-04-23 17:13:00,50.0,42.4,30.21,North,353,14.5,14.5,75,0.00,,---,0.00,VWS V14.01,2013-04-23 21:13:00,
2013-04-23 17:18:00,50.0,42.4,30.21,NE,40,6.3,6.3,75,0.00,,---,0.00,VWS V14.01,2013-04-23 21:18:00,
2013-04-23 17:23:00,49.8,42.2,30.21,NW,310,3.1,10.5,75,0.00,,---,0.00,VWS V14.01,2013-04-23 21:23:00,
2013-04-23 17:28:00,49.8,42.2,30.21,NNW,345,10.5,10.5,75,0.00,,---,0.00,VWS V14.01,2013-04-23 21:28:00,
2013-04-23 17:33:00,49.8,42.2,30.21,NNE,29,8.3,8.3,75,0.00,,---,0.00,VWS V14.01,2013-04-23 21:33:00,
2013-04-23 17:38:00,49.8,42.2,30.21,NNE,18,8.3,8.3,75,0.00,,---,0.00,VWS V14.01,2013-04-23 21:38:00,
2013-04-23 17:43:00,49.8,42.2,30.21,NNW,345,6.3,7.6,75,0.00,,---,0.00,VWS V14.01,2013-04-23 21:43:00,
2013-04-23 17:48:00,49.6,42.4,30.21,North,6,8.7,8.7,76,0.00,,---,0.00,VWS V14.01,2013-04-23 21:48:00,
2013-04-23 17:53:00,49.8,42.6,30.21,North,0,8.3,8.3,76,0.00,,---,0.00,VWS V14.01,2013-04-23 21:53:00,
2013-04-23 17:58:00,49.8,42.2,30.18,ENE,58,5.8,8.1,75,0.00,,---,0.00,VWS V14.01,2013-04-23 21:58:00,
2013-04-23 18:03:00,50.2,42.6,30.18,ENE,60,4.9,4.9,75,0.00,,---,0.00,VWS V14.01,2013-04-23 22:03:00,
2013-04-23 18:08:00,50.2,42.6,30.18,NE,38,10.1,10.1,75,0.00,,---,0.00,VWS V14.01,2013-04-23 22:08:00,
2013-04-23 18:13:00,50.2,42.6,30.18,North,353,6.3,8.1,75,0.00,,---,0.00,VWS V14.01,2013-04-23 22:13:00,
2013-04-23 18:18:00,50.0,42.0,30.18,North,7,5.4,8.3,74,0.00,,---,0.00,VWS V14.01,2013-04-23 22:18:00,
2013-04-23 18:23:00,49.8,42.2,30.18,NE,55,10.5,10.5,75,0.00,,---,0.00,VWS V14.01,2013-04-23 22:23:00,
2013-04-23 18:28:00,49.8,42.2,30.18,North,6,6.3,6.3,75,0.00,,---,0.00,VWS V14.01,2013-04-23 22:28:00,
2013-04-23 18:33:00,49.6,42.0,30.18,NNW,334,9.2,9.2,75,0.00,,---,0.00,VWS V14.01,2013-04-23 22:33:00,
2013-04-23 18:38:00,49.6,42.0,30.18,North,3,3.1,3.6,75,0.00,,---,0.00,VWS V14.01,2013-04-23 22:38:00,
2013-04-23 18:43:00,49.6,42.4,30.18,North,6,3.6,7.6,76,0.00,,---,0.00,VWS V14.01,2013-04-23 22:43:00,
2013-04-23 18:48:00,49.6,42.4,30.18,North,0,3.6,8.1,76,0.00,,---,0.00,VWS V14.01,2013-04-23 22:48:00,
2013-04-23 18:53:00,49.6,42.0,30.18,NNE,27,2.7,8.1,75,0.00,,---,0.00,VWS V14.01,2013-04-23 22:53:00,
2013-04-23 18:58:00,49.6,42.4,30.18,North,353,5.8,5.8,76,0.00,,---,0.00,VWS V14.01,2013-04-23 22:58:00,
2013-04-23 19:03:00,49.6,42.4,30.18,North,353,6.3,8.3,76,0.00,,---,0.00,VWS V14.01,2013-04-23 23:03:00,
2013-04-23 19:08:00,49.5,42.2,30.18,North,353,5.4,11.0,76,0.00,,---,0.00,VWS V14.01,2013-04-23 23:08:00,
2013-04-23 19:13:00,49.5,42.2,30.15,North,11,4.0,5.4,76,0.00,,---,0.00,VWS V14.01,2013-04-23 23:13:00,
2013-04-23 19:18:00,49.3,42.0,30.15,North,357,7.6,8.3,76,0.00,,---,0.00,VWS V14.01,2013-04-23 23:18:00,
2013-04-23 19:23:00,49.3,42.0,30.15,NE,38,6.3,6.3,76,0.00,,---,0.00,VWS V14.01,2013-04-23 23:23:00,
2013-04-23 19:28:00,49.5,42.2,30.15,North,349,4.9,4.9,76,0.00,,---,0.00,VWS V14.01,2013-04-23 23:28:00,
2013-04-23 19:33:00,49.3,42.0,30.15,ENE,57,8.1,10.1,76,0.00,,---,0.00,VWS V14.01,2013-04-23 23:33:00,
2013-04-23 19:38:00,49.1,41.9,30.15,NNW,340,4.0,6.3,76,0.00,,---,0.00,VWS V14.01,2013-04-23 23:38:00,
2013-04-23 19:43:00,48.9,41.7,30.15,NNE,19,3.1,4.0,76,0.00,,---,0.00,VWS V14.01,2013-04-23 23:43:00,
2013-04-23 19:48:00,48.7,41.5,30.15,NNE,18,3.6,6.3,76,0.00,,---,0.00,VWS V14.01,2013-04-23 23:48:00,
2013-04-23 19:53:00,48.6,41.7,30.15,North,353,2.7,3.1,77,0.00,,---,0.00,VWS V14.01,2013-04-23 23:53:00,
2013-04-23 19:58:00,48.4,41.5,30.12,NNE,30,2.7,4.0,77,0.00,,---,0.00,VWS V14.01,2013-04-23 23:58:00,
2013-04-23 20:03:00,48.2,41.7,30.12,NE,47,5.8,9.6,78,0.00,,---,0.00,VWS V14.01,2013-04-24 00:03:00,
2013-04-23 20:08:00,48.2,41.7,30.12,North,357,5.8,5.8,78,0.00,,---,0.00,VWS V14.01,2013-04-24 00:08:00,
2013-04-23 20:13:00,48.0,41.8,30.15,NE,41,3.1,9.2,79,0.00,,---,0.00,VWS V14.01,2013-04-24 00:13:00,
2013-04-23 20:18:00,48.0,41.8,30.15,NNE,24,7.2,7.2,79,0.00,,---,0.00,VWS V14.01,2013-04-24 00:18:00,
2013-04-23 20:23:00,47.8,41.7,30.15,NNE,16,8.3,8.7,79,0.00,,---,0.00,VWS V14.01,2013-04-24 00:23:00,
2013-04-23 20:28:00,47.8,42.0,30.15,North,3,8.7,8.7,80,0.00,,---,0.00,VWS V14.01,2013-04-24 00:28:00,
2013-04-23 20:33:00,47.7,41.8,30.15,NNW,344,4.9,8.7,80,0.00,,---,0.00,VWS V14.01,2013-04-24 00:33:00,
2013-04-23 20:38:00,47.8,42.3,30.15,NNE,14,8.1,8.1,81,0.00,,---,0.00,VWS V14.01,2013-04-24 00:38:00,
2013-04-23 20:43:00,47.8,42.3,30.15,North,0,4.0,4.0,81,0.00,,---,0.00,VWS V14.01,2013-04-24 00:43:00,
2013-04-23 20:48:00,48.0,42.5,30.15,North,3,5.8,5.8,81,0.00,,---,0.00,VWS V14.01,2013-04-24 00:48:00,
2013-04-23 20:53:00,47.8,42.6,30.15,North,353,4.9,5.8,82,0.00,,---,0.00,VWS V14.01,2013-04-24 00:53:00,
2013-04-23 20:58:00,47.8,42.3,30.18,NNW,343,5.8,5.8,81,0.00,,---,0.00,VWS V14.01,2013-04-24 00:58:00,
2013-04-23 21:03:00,47.8,42.3,30.18,North,353,0.0,2.7,81,0.00,,---,0.00,VWS V14.01,2013-04-24 01:03:00,
2013-04-23 21:08:00,47.8,42.3,30.18,North,7,0.0,5.8,81,0.00,,---,0.00,VWS V14.01,2013-04-24 01:08:00,
2013-04-23 21:14:00,48.0,42.5,30.18,NW,311,2.7,4.9,81,0.00,,---,0.00,VWS V14.01,2013-04-24 01:14:00,
2013-04-23 21:19:00,48.0,42.5,30.18,North,0,8.1,8.1,81,0.00,,---,0.00,VWS V14.01,2013-04-24 01:19:00,
2013-04-23 21:24:00,48.0,42.5,30.18,NW,310,3.1,5.8,81,0.00,,---,0.00,VWS V14.01,2013-04-24 01:24:00,
2013-04-23 21:29:00,48.0,42.5,30.18,North,0,3.6,4.0,81,0.00,,---,0.00,VWS V14.01,2013-04-24 01:29:00,
2013-04-23 21:34:00,48.0,42.5,30.18,NNW,348,5.8,5.8,81,0.00,,---,0.00,VWS V14.01,2013-04-24 01:34:00,
2013-04-23 21:39:00,48.0,42.5,30.18,North,6,4.0,8.1,81,0.00,,---,0.00,VWS V14.01,2013-04-24 01:39:00,
2013-04-23 21:44:00,48.0,42.5,30.18,NNW,329,3.6,6.3,81,0.00,,---,0.00,VWS V14.01,2013-04-24 01:44:00,
2013-04-23 21:49:00,48.0,42.5,30.18,North,9,6.3,6.3,81,0.00,,---,0.00,VWS V14.01,2013-04-24 01:49:00,
2013-04-23 21:54:00,48.0,42.5,30.18,NNW,337,5.4,7.6,81,0.00,,---,0.00,VWS V14.01,2013-04-24 01:54:00,
2013-04-23 21:59:00,48.0,42.5,30.18,North,2,3.6,4.0,81,0.00,,---,0.00,VWS V14.01,2013-04-24 01:59:00,
2013-04-23 22:04:00,48.2,42.3,30.18,NNW,344,4.0,8.1,80,0.00,,---,0.00,VWS V14.01,2013-04-24 02:04:00,
2013-04-23 22:09:00,48.2,42.3,30.18,North,2,5.4,5.4,80,0.00,,---,0.00,VWS V14.01,2013-04-24 02:09:00,
2013-04-23 22:14:00,48.2,42.3,30.18,North,357,2.7,2.7,80,0.00,,---,0.00,VWS V14.01,2013-04-24 02:14:00,
2013-04-23 22:19:00,48.2,42.3,30.18,WNW,297,4.0,6.3,80,0.00,,---,0.00,VWS V14.01,2013-04-24 02:19:00,
2013-04-23 22:24:00,48.2,42.3,30.18,North,353,6.3,6.3,80,0.00,,---,0.00,VWS V14.01,2013-04-24 02:24:00,
2013-04-23 22:29:00,48.4,42.2,30.18,NNE,27,2.7,4.9,79,0.00,,---,0.00,VWS V14.01,2013-04-24 02:29:00,
2013-04-23 22:34:00,48.4,42.2,30.18,NNW,339,0.0,0.0,79,0.00,,---,0.00,VWS V14.01,2013-04-24 02:34:00,
2013-04-23 22:39:00,48.4,42.2,30.18,NW,315,3.6,5.4,79,0.00,,---,0.00,VWS V14.01,2013-04-24 02:39:00,
2013-04-23 22:44:00,48.2,42.0,30.15,North,0,4.9,8.1,79,0.00,,---,0.00,VWS V14.01,2013-04-24 02:44:00,
2013-04-23 22:49:00,48.2,42.0,30.15,NNW,332,0.0,3.1,79,0.00,,---,0.00,VWS V14.01,2013-04-24 02:49:00,
2013-04-23 22:58:00,48.4,42.2,30.15,NNW,331,3.1,4.0,79,0.00,,---,0.00,VWS V14.01,2013-04-24 02:58:00,
2013-04-23 23:03:00,48.4,42.2,30.15,NW,319,2.7,5.4,79,0.00,,---,0.00,VWS V14.01,2013-04-24 03:03:00,
2013-04-23 23:09:00,48.4,42.2,30.15,North,0,5.8,7.6,79,0.00,,---,0.00,VWS V14.01,2013-04-24 03:09:00,
2013-04-23 23:14:00,48.4,42.2,30.15,NW,324,4.0,5.4,79,0.00,,---,0.00,VWS V14.01,2013-04-24 03:14:00,
2013-04-23 23:19:00,48.4,42.2,30.15,NNW,342,4.0,4.0,79,0.00,,---,0.00,VWS V14.01,2013-04-24 03:19:00,
2013-04-23 23:24:00,48.4,42.2,30.15,NW,316,4.0,4.0,79,0.00,,---,0.00,VWS V14.01,2013-04-24 03:24:00,
2013-04-23 23:29:00,48.4,42.2,30.15,NW,313,0.0,2.7,79,0.00,,---,0.00,VWS V14.01,2013-04-24 03:29:00,
2013-04-23 23:34:00,48.6,42.3,30.15,NNW,341,2.7,3.1,79,0.00,,---,0.00,VWS V14.01,2013-04-24 03:34:00,
2013-04-23 23:39:00,48.6,42.0,30.15,NNW,340,4.9,4.9,78,0.00,,---,1.06,VWS V14.01,2013-04-24 03:39:00,
2013-04-23 23:45:00,48.6,42.0,30.15,North,9,3.6,3.6,78,0.00,,---,0.00,VWS V14.01,2013-04-24 03:45:00,
2013-04-23 23:50:00,48.6,42.0,30.15,North,353,4.0,5.8,78,0.00,,---,0.00,VWS V14.01,2013-04-24 03:50:00,
2013-04-23 23:56:00,48.6,42.0,30.15,NNW,337,5.4,5.8,78,0.00,,---,0.00,VWS V14.01,2013-04-24 03:56:00,